Date String (YYYY-MM-DD hh:mm:ss) UTC,Instrument flags,Ambient pressure (hPa),Sample flow (lpm),Bypass flow (lpm),Sample temperature (°C),Ambient temperature (°C),ASC tube jacket temperature (°C),LED temperature (°C),Box temperature (°C),Sample RH (%),Span deviation,Mass concentration (μg/m³),Mass concentration (μg/m³),Mass concentration (μg/m³)
DateTimeUTC,F1_M11,P_M11,Q1_M11,Q2_M11,T1_M11,T2_M11,T3_M11,T4_M11,T5_M11,U1_M11,ZSPAN_M11,X0_M11,X2_M11,X1_M11
2021-09-23 22:00:00,,0827.4,4.99,0.00,29.1,27.4,00.0,38.2,30.9,09.9,0000.8,0019.72,0010.19,0009.08
2021-09-23 22:01:00,,0827.4,5.01,0.00,29.2,27.8,00.0,38.2,31.0,09.9,0000.9,0019.12,0010.33,0009.19
2021-09-23 22:02:00,,0827.4,5.00,0.00,29.2,28.1,00.0,38.2,31.1,10.1,0000.2,0019.51,0010.43,0009.31
2021-09-23 22:03:00,,0827.5,5.00,0.00,29.3,28.4,00.0,38.2,31.2,10.1,0000.7,0019.65,0010.47,0009.39
2021-09-23 22:04:00,,0827.4,5.00,0.00,29.4,28.6,00.0,38.3,31.3,09.9,0001.5,0020.81,0010.50,0009.39
2021-09-23 22:05:00,,0827.5,5.00,0.00,29.4,27.7,00.0,38.3,31.1,09.8,0001.8,0020.32,0010.50,0009.39
2021-09-23 22:06:00,,0827.5,5.01,0.00,29.2,25.9,00.0,38.3,30.6,10.0,0001.2,0020.39,0010.46,0009.37
2021-09-23 22:07:00,,0827.4,5.01,0.00,29.1,25.8,00.0,38.2,30.5,10.0,0002.0,0020.46,0010.47,0009.37
2021-09-23 22:08:00,,0827.4,5.00,0.00,29.1,26.2,00.0,38.2,30.7,10.3,0003.0,0020.05,0010.50,0009.41
2021-09-23 22:09:00,,0827.4,4.99,0.00,29.1,26.7,00.0,38.2,30.7,10.1,0002.6,0020.45,0010.59,0009.50
2021-09-23 22:10:00,,0827.4,5.00,0.00,29.1,27.1,00.0,38.2,30.8,09.9,0002.5,0020.39,0010.73,0009.60
2021-09-23 22:11:00,,0827.5,5.00,0.00,29.1,27.5,00.0,38.2,31.0,09.9,0002.4,0020.43,0010.89,0009.72
2021-09-23 22:12:00,,0827.5,5.00,0.00,29.2,27.9,00.0,38.2,31.1,09.8,0001.1,0021.27,0011.00,0009.85
2021-09-23 22:13:00,,0827.5,5.01,0.00,29.3,28.2,00.0,38.2,31.2,09.8,0001.6,0021.82,0011.10,0009.95
2021-09-23 22:14:00,,0827.5,5.00,0.00,29.3,28.4,00.0,38.2,31.3,09.8,0001.3,0021.92,0011.19,0010.03
2021-09-23 22:15:00,,0827.4,5.02,0.00,29.4,27.8,00.0,38.3,31.1,09.7,0000.8,0021.32,0011.31,0010.14
2021-09-23 22:16:00,,0827.4,5.01,0.00,29.2,25.9,00.0,38.2,30.6,09.8,0000.7,0022.62,0011.43,0010.25
2021-09-23 22:17:00,,0827.4,4.99,0.00,29.1,25.6,00.0,38.2,30.4,09.9,0000.3,0022.67,0011.56,0010.37
2021-09-23 22:18:00,,0827.4,5.00,0.00,29.0,26.0,00.0,38.2,30.6,10.0,-000.1,0022.84,0011.69,0010.48
2021-09-23 22:19:00,,0827.4,5.01,0.00,29.0,26.5,00.0,38.1,30.7,09.8,-000.7,0022.75,0011.77,0010.58
2021-09-23 22:20:00,,0827.4,5.01,0.00,29.0,26.9,00.0,38.1,30.8,09.7,-000.9,0022.13,0011.79,0010.66
2021-09-23 22:21:00,,0827.4,4.99,0.00,29.1,27.4,00.0,38.1,30.9,09.8,-000.9,0022.97,0011.82,0010.73
2021-09-23 22:22:00,,0827.4,4.99,0.00,29.1,27.7,00.0,38.1,31.0,09.9,-000.8,0023.40,0011.83,0010.80
2021-09-23 22:23:00,,0827.4,5.00,0.00,29.2,28.1,00.0,38.2,31.1,09.8,-000.4,0023.00,0011.92,0010.85
2021-09-23 22:24:00,,0827.5,5.01,0.00,29.3,28.3,00.0,38.2,31.2,09.9,-000.8,0022.09,0011.97,0010.87
2021-09-23 22:25:00,,0827.5,5.00,0.00,29.3,27.9,00.0,38.2,31.1,10.0,-000.7,0022.79,0012.05,0010.93
2021-09-23 22:26:00,,0827.4,5.00,0.00,29.2,26.1,00.0,38.2,30.6,10.0,-001.1,0023.56,0012.09,0010.96
2021-09-23 22:27:00,,0827.4,5.00,0.00,29.0,25.5,00.0,38.2,30.4,10.1,-001.0,0023.22,0012.11,0011.00
2021-09-23 22:28:00,,0827.4,5.00,0.00,29.0,25.9,00.0,38.1,30.5,10.1,-000.2,0023.31,0012.15,0011.03
2021-09-23 22:29:00,,0827.4,5.00,0.00,28.9,26.3,00.0,38.1,30.5,10.0,-000.2,0023.44,0012.18,0011.06
2021-09-23 22:30:00,,0827.5,5.01,0.00,28.9,26.8,00.0,38.1,30.6,10.1,0000.3,0024.51,0012.24,0011.12
2021-09-23 22:31:00,,0827.5,4.99,0.00,29.0,27.3,00.0,38.1,30.8,10.2,0000.7,0024.82,0012.27,0011.17
2021-09-23 22:32:00,,0827.5,5.01,0.00,29.1,27.7,00.0,38.1,30.9,10.2,0000.7,0024.08,0012.28,0011.19
2021-09-23 22:33:00,,0827.6,5.00,0.00,29.1,28.0,00.0,38.1,31.0,10.2,0001.1,0024.15,0012.28,0011.23
2021-09-23 22:34:00,,0827.5,5.00,0.00,29.2,28.2,00.0,38.1,31.1,09.9,0001.1,0024.10,0012.31,0011.27
2021-09-23 22:35:00,,0827.5,5.01,0.00,29.3,28.4,00.0,38.1,31.2,10.0,0001.5,0023.82,0012.31,0011.30
2021-09-23 22:36:00,,0827.5,5.00,0.00,29.3,28.3,00.0,38.2,31.2,09.9,0001.3,0023.30,0012.30,0011.32
2021-09-23 22:37:00,,0827.5,5.00,0.00,29.2,26.6,00.0,38.2,30.7,10.0,0001.8,0023.11,0012.31,0011.33
2021-09-23 22:38:00,,0827.5,5.01,0.00,29.1,25.6,00.0,38.2,30.4,10.4,0001.9,0023.10,0012.40,0011.40
2021-09-23 22:39:00,,0827.5,4.99,0.00,29.0,25.9,00.0,38.1,30.5,10.5,0002.0,0023.59,0012.48,0011.47
2021-09-23 22:40:00,,0827.5,5.00,0.00,29.0,26.3,00.0,38.1,30.5,10.8,0002.4,0024.08,0012.57,0011.58
2021-09-23 22:41:00,,0827.6,5.00,0.00,29.0,26.8,00.0,38.1,30.7,10.7,0002.0,0023.73,0012.73,0011.71
2021-09-23 22:42:00,,0827.6,5.00,0.00,29.0,27.3,00.0,38.1,30.8,10.5,0001.8,0023.99,0013.04,0011.93
2021-09-23 22:43:00,,0827.6,4.99,0.00,29.1,27.7,00.0,38.1,30.9,10.3,0001.4,0024.58,0013.34,0012.17
2021-09-23 22:44:00,,0827.6,5.00,0.00,29.1,28.0,00.0,38.1,31.0,10.1,0001.1,0024.49,0013.63,0012.38
2021-09-23 22:45:00,,0827.6,5.01,0.00,29.2,28.2,00.0,38.1,31.1,10.4,0001.8,0024.99,0013.94,0012.64
2021-09-23 22:46:00,,0827.7,5.00,0.00,29.3,28.3,00.0,38.1,31.1,10.5,0001.7,0025.53,0014.27,0012.96
2021-09-23 22:47:00,,0827.6,5.00,0.00,29.2,26.7,00.0,38.2,30.7,10.6,0001.2,0026.74,0014.60,0013.27
2021-09-23 22:48:00,,0827.6,4.99,0.00,29.0,25.4,00.0,38.1,30.3,10.9,0000.8,0027.16,0014.96,0013.58
2021-09-23 22:49:00,,0827.6,5.01,0.00,28.9,25.7,00.0,38.1,30.4,11.1,0000.4,0026.49,0015.30,0013.87
2021-09-23 22:50:00,,0827.6,4.98,0.00,28.9,26.2,00.0,38.1,30.5,11.1,0000.1,0026.94,0015.60,0014.16
2021-09-23 22:51:00,,0827.7,5.01,0.00,28.9,26.6,00.0,38.0,30.6,11.3,0000.4,0027.05,0015.95,0014.45
2021-09-23 22:52:00,,0827.6,4.99,0.00,28.9,27.1,00.0,38.0,30.7,11.0,0000.4,0027.28,0016.29,0014.75
2021-09-23 22:53:00,,0827.6,5.01,0.00,29.0,27.5,00.0,38.0,30.9,11.2,0000.4,0028.17,0016.53,0015.01
2021-09-23 22:54:00,,0827.7,5.00,0.00,29.1,27.8,00.0,38.0,31.0,11.1,0000.3,0028.84,0016.92,0015.37
2021-09-23 22:55:00,,0827.7,4.99,0.00,29.1,28.1,00.0,38.1,31.1,11.1,0000.2,0030.00,0017.29,0015.74
2021-09-23 22:56:00,,0827.7,5.00,0.00,29.2,28.3,00.0,38.1,31.1,11.0,-000.0,0030.80,0017.61,0016.05
2021-09-23 22:57:00,,0827.7,5.00,0.00,29.3,28.5,00.0,38.1,31.2,10.9,0000.3,0032.25,0018.06,0016.42
2021-09-23 22:58:00,,0827.7,4.98,0.00,29.3,28.6,00.0,38.2,31.3,10.7,0000.7,0032.63,0018.50,0016.83
2021-09-23 22:59:00,,0827.7,5.01,0.00,29.3,27.5,00.0,38.2,31.0,10.7,0000.8,0032.48,0018.88,0017.25
